Location: Praha
(50.0830°N, 14.4670°E)
Time: 16:17:39
(UTC+01:00)

ISS - Pass Details

Date: 12 November 2018
Orbit: 401 x 408 km, 51.6° (Epoch: 20 November)

Event Time Altitude Azimuth Distance (km) Brightness Sun altitude
Exits shadow 05:51:32 17° 246° (WSW) 1,101 -2.1 -12.6°
Maximum altitude 05:52:41 21° 218° (SW) 983 -2.1 -12.5°
Drops below altitude 10° 05:55:12 10° 167° (SSE) 1,458 -0.7 -12.1°
Sets 05:57:36 0° 150° (SSE) 2,316 0.7 -11.7°
